Time,TemperatureF,DewpointF,PressureIn,WindDirection,WindDirectionDegrees,WindSpeedMPH,WindSpeedGustMPH,Humidity,HourlyPrecipIn,Conditions,Clouds,dailyrainin,SoftwareType,DateUTC
2013-06-09 00:02:00,62.0,56.0,29.87,SSE,160,0.0,6.0,82,0.00,,,0.00,,2013-06-09 05:02:00,
2013-06-09 00:12:00,62.0,56.0,29.87,SSE,160,0.0,6.0,82,0.00,,,0.00,,2013-06-09 05:12:00,
2013-06-09 00:22:00,62.0,57.0,29.87,SSE,161,0.0,5.0,84,0.00,,,0.00,,2013-06-09 05:22:00,
2013-06-09 00:32:00,62.0,57.0,29.88,SE,137,0.0,7.0,84,0.00,,,0.00,,2013-06-09 05:32:00,
2013-06-09 00:42:00,62.0,57.0,29.88,SE,137,0.0,7.0,84,0.00,,,0.00,,2013-06-09 05:42:00,
2013-06-09 00:52:00,62.0,57.0,29.88,NNE,30,0.0,0.0,85,0.00,,,0.00,,2013-06-09 05:52:00,
2013-06-09 01:02:00,62.0,58.0,29.88,East,97,0.0,4.0,86,0.00,,,0.00,,2013-06-09 06:02:00,
2013-06-09 01:12:00,62.0,58.0,29.88,East,97,0.0,4.0,86,0.00,,,0.00,,2013-06-09 06:12:00,
2013-06-09 01:22:00,61.0,58.0,29.88,South,191,0.0,0.0,89,0.00,,,0.00,,2013-06-09 06:22:00,
2013-06-09 01:32:00,60.0,57.0,29.88,SSE,161,0.0,5.0,90,0.00,,,0.00,,2013-06-09 06:32:00,
2013-06-09 01:42:00,60.0,57.0,29.88,SE,139,5.0,11.0,91,0.00,,,0.00,,2013-06-09 06:42:00,
2013-06-09 01:52:00,60.0,57.0,29.88,SE,139,5.0,11.0,91,0.00,,,0.00,,2013-06-09 06:52:00,
2013-06-09 02:02:00,59.0,57.0,29.87,SSE,150,0.0,9.0,94,0.00,,,0.00,,2013-06-09 07:02:00,
2013-06-09 02:12:00,59.0,57.0,29.87,SSE,150,0.0,9.0,94,0.00,,,0.00,,2013-06-09 07:12:00,
2013-06-09 02:22:00,58.0,57.0,29.87,SSE,158,4.0,9.0,96,0.00,,,0.00,,2013-06-09 07:22:00,
2013-06-09 02:32:00,58.0,57.0,29.86,SSE,147,3.0,6.0,97,0.00,,,0.00,,2013-06-09 07:32:00,
2013-06-09 02:42:00,58.0,57.0,29.86,SSE,147,3.0,6.0,97,0.00,,,0.00,,2013-06-09 07:42:00,
2013-06-09 02:52:00,57.0,56.0,29.86,SSE,156,4.0,4.0,98,0.02,,,0.02,,2013-06-09 07:52:00,
2013-06-09 03:02:00,57.0,57.0,29.85,North,5,0.0,4.0,99,0.14,,,0.14,,2013-06-09 08:02:00,
2013-06-09 03:12:00,57.0,57.0,29.85,North,5,0.0,4.0,99,0.14,,,0.14,,2013-06-09 08:12:00,
2013-06-09 03:22:00,57.0,57.0,29.85,SSE,154,5.0,10.0,99,0.16,,,0.16,,2013-06-09 08:22:00,
2013-06-09 03:32:00,57.0,57.0,29.84,South,182,6.0,6.0,99,0.16,,,0.16,,2013-06-09 08:32:00,
2013-06-09 03:42:00,57.0,57.0,29.84,South,182,6.0,6.0,99,0.16,,,0.16,,2013-06-09 08:42:00,
2013-06-09 03:53:00,57.0,57.0,29.83,SSE,160,4.0,11.0,99,0.16,,,0.18,,2013-06-09 08:53:00,
2013-06-09 04:02:00,56.0,56.0,29.83,SSE,167,0.0,9.0,99,0.06,,,0.20,,2013-06-09 09:02:00,
2013-06-09 04:12:00,56.0,56.0,29.83,SSE,167,0.0,9.0,99,0.06,,,0.20,,2013-06-09 09:12:00,
2013-06-09 04:22:00,56.0,56.0,29.82,NE,56,5.0,9.0,99,0.04,,,0.20,,2013-06-09 09:22:00,
2013-06-09 04:33:00,56.0,56.0,29.82,SSE,168,6.0,9.0,99,0.00,,,0.14,,2013-06-09 09:33:00,
2013-06-09 04:43:00,56.0,56.0,29.82,SSE,168,6.0,9.0,99,0.00,,,0.14,,2013-06-09 09:43:00,
2013-06-09 04:52:00,55.0,55.0,29.82,ESE,111,0.0,12.0,99,0.00,,,0.16,,2013-06-09 09:52:00,
2013-06-09 05:03:00,55.0,55.0,29.81,ESE,122,5.0,7.0,99,0.00,,,0.20,,2013-06-09 10:03:00,
2013-06-09 05:12:00,55.0,55.0,29.81,SSE,157,6.0,10.0,99,0.00,,,0.20,,2013-06-09 10:12:00,
2013-06-09 05:23:00,55.0,55.0,29.81,SSE,157,6.0,10.0,99,0.00,,,0.20,,2013-06-09 10:23:00,
2013-06-09 05:32:00,56.0,56.0,29.80,NNE,22,4.0,11.0,99,0.06,,,0.20,,2013-06-09 10:32:00,
2013-06-09 05:43:00,56.0,56.0,29.80,NNE,22,4.0,11.0,99,0.06,,,0.20,,2013-06-09 10:43:00,
2013-06-09 05:52:00,55.0,55.0,29.80,East,81,3.0,10.0,99,0.14,,,0.30,,2013-06-09 10:52:00,
2013-06-09 06:02:00,55.0,55.0,29.79,SSW,196,0.0,17.0,99,0.10,,,0.30,,2013-06-09 11:02:00,
2013-06-09 06:12:00,55.0,55.0,29.79,SSW,196,0.0,17.0,99,0.10,,,0.30,,2013-06-09 11:12:00,
2013-06-09 06:22:00,55.0,55.0,29.79,SE,146,5.0,13.0,99,0.12,,,0.32,,2013-06-09 11:22:00,
2013-06-09 06:32:00,55.0,55.0,29.79,ESE,123,0.0,14.0,99,0.16,,,0.36,,2013-06-09 11:32:00,
2013-06-09 06:42:00,55.0,55.0,29.79,ESE,123,0.0,14.0,99,0.16,,,0.36,,2013-06-09 11:42:00,
2013-06-09 06:52:00,55.0,55.0,29.79,SSE,168,6.0,17.0,99,0.00,,,0.30,,2013-06-09 11:52:00,
2013-06-09 07:02:00,55.0,55.0,29.79,SSE,165,6.0,14.0,99,0.04,,,0.34,,2013-06-09 12:02:00,
2013-06-09 07:12:00,55.0,55.0,29.79,SSE,165,6.0,14.0,99,0.04,,,0.34,,2013-06-09 12:12:00,
2013-06-09 07:22:00,55.0,55.0,29.78,NE,50,4.0,13.0,99,0.04,,,0.36,,2013-06-09 12:22:00,
2013-06-09 07:32:00,55.0,55.0,29.78,SSE,157,8.0,14.0,99,0.00,,,0.36,,2013-06-09 12:32:00,
2013-06-09 07:42:00,55.0,55.0,29.78,SSE,157,8.0,14.0,99,0.00,,,0.36,,2013-06-09 12:42:00,
2013-06-09 07:52:00,55.0,55.0,29.78,NE,47,4.0,18.0,99,0.06,,,0.36,,2013-06-09 12:52:00,
2013-06-09 08:02:00,55.0,55.0,29.78,South,185,0.0,13.0,99,0.02,,,0.36,,2013-06-09 13:02:00,
2013-06-09 08:12:00,55.0,55.0,29.78,South,185,0.0,13.0,99,0.02,,,0.36,,2013-06-09 13:12:00,
2013-06-09 08:22:00,55.0,55.0,29.78,SSE,163,6.0,13.0,99,0.10,,,0.46,,2013-06-09 13:22:00,
2013-06-09 08:32:00,55.0,55.0,29.78,SSE,158,5.0,10.0,99,0.12,,,0.48,,2013-06-09 13:32:00,
2013-06-09 08:42:00,55.0,55.0,29.78,SSE,150,8.0,15.0,99,0.12,,,0.48,,2013-06-09 13:42:00,
2013-06-09 08:52:00,55.0,55.0,29.78,SSE,150,8.0,15.0,99,0.12,,,0.48,,2013-06-09 13:52:00,
2013-06-09 09:02:00,55.0,55.0,29.77,SSW,202,0.0,11.0,99,0.12,,,0.48,,2013-06-09 14:02:00,
2013-06-09 09:12:00,55.0,55.0,29.77,SSW,202,0.0,11.0,99,0.12,,,0.48,,2013-06-09 14:12:00,
2013-06-09 09:22:00,56.0,56.0,29.77,SSE,163,8.0,12.0,99,0.02,,,0.48,,2013-06-09 14:22:00,
2013-06-09 09:32:00,56.0,56.0,29.77,SE,135,7.0,14.0,99,0.00,,,0.48,,2013-06-09 14:32:00,
2013-06-09 09:42:00,56.0,56.0,29.77,NE,54,4.0,9.0,99,0.00,,,0.48,,2013-06-09 14:42:00,
2013-06-09 09:52:00,56.0,56.0,29.77,NE,54,4.0,9.0,99,0.00,,,0.48,,2013-06-09 14:52:00,
2013-06-09 10:02:00,57.0,56.0,29.77,SSE,160,11.0,12.0,96,0.00,,,0.48,,2013-06-09 15:02:00,
2013-06-09 10:12:00,57.0,56.0,29.77,SSE,160,11.0,12.0,96,0.00,,,0.48,,2013-06-09 15:12:00,
2013-06-09 10:22:00,56.0,55.0,29.77,SE,146,7.0,13.0,96,0.00,,,0.48,,2013-06-09 15:22:00,
2013-06-09 10:33:00,57.0,56.0,29.77,NE,35,4.0,10.0,96,0.00,,,0.48,,2013-06-09 15:33:00,
2013-06-09 10:43:00,57.0,56.0,29.77,NE,35,4.0,10.0,96,0.00,,,0.48,,2013-06-09 15:43:00,
2013-06-09 10:53:00,57.0,56.0,29.77,East,84,3.0,13.0,96,0.00,,,0.48,,2013-06-09 15:53:00,
2013-06-09 11:03:00,56.0,55.0,29.77,SE,136,6.0,12.0,95,0.00,,,0.48,,2013-06-09 16:03:00,
2013-06-09 11:13:00,56.0,55.0,29.77,SE,136,6.0,12.0,95,0.00,,,0.48,,2013-06-09 16:13:00,
2013-06-09 11:23:00,57.0,56.0,29.78,SE,133,5.0,13.0,95,0.00,,,0.48,,2013-06-09 16:23:00,
2013-06-09 11:33:00,57.0,56.0,29.78,ESE,112,4.0,10.0,96,0.00,,,0.48,,2013-06-09 16:33:00,
2013-06-09 11:42:00,57.0,56.0,29.78,ESE,112,4.0,10.0,96,0.00,,,0.48,,2013-06-09 16:42:00,
2013-06-09 11:53:00,57.0,56.0,29.78,SE,126,0.0,7.0,95,0.00,,,0.48,,2013-06-09 16:53:00,
2013-06-09 12:02:00,57.0,55.0,29.78,SE,140,4.0,9.0,93,0.00,,,0.48,,2013-06-09 17:02:00,
2013-06-09 12:12:00,57.0,55.0,29.79,SE,143,7.0,12.0,94,0.00,,,0.48,,2013-06-09 17:12:00,
2013-06-09 12:22:00,57.0,55.0,29.79,SE,143,7.0,12.0,94,0.00,,,0.48,,2013-06-09 17:22:00,
2013-06-09 12:32:00,57.0,56.0,29.79,ENE,60,7.0,10.0,95,0.00,,,0.48,,2013-06-09 17:32:00,
2013-06-09 12:42:00,57.0,56.0,29.79,ENE,60,7.0,10.0,95,0.00,,,0.48,,2013-06-09 17:42:00,
2013-06-09 12:52:00,57.0,56.0,29.79,SE,132,5.0,8.0,98,0.00,,,0.48,,2013-06-09 17:52:00,
2013-06-09 13:02:00,57.0,57.0,29.78,ESE,106,0.0,9.0,99,0.02,,,0.50,,2013-06-09 18:02:00,
2013-06-09 13:12:00,57.0,57.0,29.78,ESE,106,0.0,9.0,99,0.02,,,0.50,,2013-06-09 18:12:00,
2013-06-09 13:21:00,57.0,57.0,29.78,SE,125,5.0,10.0,99,0.02,,,0.50,,2013-06-09 18:21:00,
2013-06-09 13:32:00,57.0,57.0,29.78,NE,56,6.0,7.0,99,0.02,,,0.50,,2013-06-09 18:32:00,
2013-06-09 13:42:00,57.0,57.0,29.78,NE,56,6.0,7.0,99,0.02,,,0.50,,2013-06-09 18:42:00,
2013-06-09 13:52:00,57.0,57.0,29.78,NNE,28,0.0,8.0,99,0.02,,,0.50,,2013-06-09 18:52:00,
2013-06-09 14:02:00,57.0,57.0,29.78,East,101,4.0,7.0,99,0.00,,,0.50,,2013-06-09 19:02:00,
2013-06-09 14:12:00,57.0,57.0,29.78,East,101,4.0,7.0,99,0.00,,,0.50,,2013-06-09 19:12:00,
2013-06-09 14:22:00,57.0,57.0,29.78,East,95,0.0,8.0,99,0.02,,,0.52,,2013-06-09 19:22:00,
2013-06-09 14:32:00,57.0,57.0,29.78,SSE,165,4.0,7.0,99,0.02,,,0.52,,2013-06-09 19:32:00,
2013-06-09 14:42:00,57.0,57.0,29.78,SSE,165,4.0,7.0,99,0.02,,,0.52,,2013-06-09 19:42:00,
2013-06-09 14:52:00,58.0,58.0,29.77,South,187,0.0,5.0,99,0.02,,,0.52,,2013-06-09 19:52:00,
2013-06-09 15:02:00,59.0,59.0,29.77,South,174,6.0,10.0,99,0.02,,,0.52,,2013-06-09 20:02:00,
2013-06-09 15:12:00,59.0,59.0,29.77,South,174,6.0,10.0,99,0.02,,,0.52,,2013-06-09 20:12:00,
2013-06-09 15:22:00,59.0,59.0,29.77,NNE,26,0.0,5.0,99,0.00,,,0.52,,2013-06-09 20:22:00,
2013-06-09 15:32:00,59.0,59.0,29.76,East,92,5.0,9.0,99,0.00,,,0.52,,2013-06-09 20:32:00,
2013-06-09 15:42:00,59.0,59.0,29.76,East,92,5.0,9.0,99,0.00,,,0.52,,2013-06-09 20:42:00,
2013-06-09 15:52:00,60.0,59.0,29.76,East,84,0.0,6.0,98,0.00,,,0.52,,2013-06-09 20:52:00,
2013-06-09 16:02:00,61.0,60.0,29.77,NE,52,7.0,9.0,95,0.00,,,0.52,,2013-06-09 21:02:00,
2013-06-09 16:12:00,62.0,61.0,29.76,ENE,70,0.0,4.0,96,0.00,,,0.52,,2013-06-09 21:12:00,
2013-06-09 16:22:00,62.0,61.0,29.76,ENE,70,0.0,4.0,96,0.00,,,0.52,,2013-06-09 21:22:00,
2013-06-09 16:33:00,63.0,61.0,29.76,South,177,0.0,8.0,92,0.00,,,0.52,,2013-06-09 21:33:00,
2013-06-09 16:43:00,63.0,61.0,29.76,South,177,0.0,8.0,92,0.00,,,0.52,,2013-06-09 21:43:00,
2013-06-09 16:53:00,64.0,61.0,29.76,SE,143,0.0,7.0,89,0.00,,,0.52,,2013-06-09 21:53:00,
2013-06-09 17:02:00,63.0,61.0,29.77,NE,49,0.0,8.0,92,0.00,,,0.52,,2013-06-09 22:02:00,
2013-06-09 17:13:00,63.0,61.0,29.76,NE,37,0.0,8.0,93,0.00,,,0.52,,2013-06-09 22:13:00,
2013-06-09 17:23:00,63.0,61.0,29.76,NE,37,0.0,8.0,93,0.00,,,0.52,,2013-06-09 22:23:00,
2013-06-09 17:33:00,63.0,61.0,29.76,NNE,32,2.0,5.0,92,0.00,,,0.52,,2013-06-09 22:33:00,
2013-06-09 17:42:00,63.0,61.0,29.76,NNE,32,2.0,5.0,92,0.00,,,0.52,,2013-06-09 22:42:00,
2013-06-09 17:52:00,64.0,62.0,29.76,NNE,26,6.0,8.0,92,0.00,,,0.52,,2013-06-09 22:52:00,
2013-06-09 18:02:00,64.0,61.0,29.75,ENE,70,0.0,6.0,91,0.00,,,0.52,,2013-06-09 23:02:00,
2013-06-09 18:12:00,64.0,62.0,29.75,South,181,4.0,7.0,92,0.00,,,0.52,,2013-06-09 23:12:00,
2013-06-09 18:22:00,64.0,62.0,29.75,South,181,4.0,7.0,92,0.00,,,0.52,,2013-06-09 23:22:00,
2013-06-09 18:32:00,65.0,62.0,29.75,NNE,14,0.0,0.0,90,0.00,,,0.52,,2013-06-09 23:32:00,
2013-06-09 18:42:00,65.0,62.0,29.75,NNE,14,0.0,0.0,90,0.00,,,0.52,,2013-06-09 23:42:00,
2013-06-09 18:52:00,66.0,63.0,29.75,ENE,70,0.0,0.0,89,0.00,,,0.52,,2013-06-09 23:52:00,
2013-06-09 19:02:00,66.0,62.0,29.76,ENE,59,0.0,7.0,88,0.00,,,0.52,,2013-06-10 00:02:00,
2013-06-09 19:12:00,66.0,63.0,29.76,ENE,68,0.0,0.0,89,0.00,,,0.52,,2013-06-10 00:12:00,
2013-06-09 19:22:00,66.0,63.0,29.76,ENE,68,0.0,0.0,89,0.00,,,0.52,,2013-06-10 00:22:00,
2013-06-09 19:32:00,66.0,63.0,29.76,East,81,4.0,4.0,89,0.00,,,0.52,,2013-06-10 00:32:00,
2013-06-09 19:42:00,66.0,63.0,29.76,East,81,4.0,4.0,89,0.00,,,0.52,,2013-06-10 00:42:00,
2013-06-09 19:52:00,65.0,62.0,29.76,East,91,0.0,6.0,90,0.00,,,0.52,,2013-06-10 00:52:00,
2013-06-09 20:02:00,65.0,62.0,29.76,East,94,0.0,5.0,91,0.00,,,0.52,,2013-06-10 01:02:00,
2013-06-09 20:12:00,65.0,62.0,29.76,East,94,0.0,5.0,91,0.00,,,0.52,,2013-06-10 01:12:00,
2013-06-09 20:22:00,65.0,62.0,29.76,SSE,151,0.0,5.0,91,0.00,,,0.52,,2013-06-10 01:22:00,
2013-06-09 20:32:00,65.0,62.0,29.76,NNE,28,0.0,0.0,91,0.00,,,0.52,,2013-06-10 01:32:00,
2013-06-09 20:42:00,65.0,62.0,29.76,NNE,28,0.0,0.0,91,0.00,,,0.52,,2013-06-10 01:42:00,
2013-06-09 20:52:00,64.0,62.0,29.77,NE,53,0.0,0.0,92,0.00,,,0.52,,2013-06-10 01:52:00,
2013-06-09 21:02:00,64.0,62.0,29.78,NE,53,0.0,0.0,92,0.00,,,0.52,,2013-06-10 02:02:00,
2013-06-09 21:12:00,64.0,62.0,29.78,NE,53,0.0,0.0,92,0.00,,,0.52,,2013-06-10 02:12:00,
2013-06-09 21:22:00,64.0,62.0,29.77,East,90,0.0,5.0,93,0.00,,,0.52,,2013-06-10 02:22:00,
2013-06-09 21:32:00,64.0,62.0,29.78,NE,49,0.0,0.0,93,0.00,,,0.52,,2013-06-10 02:32:00,
2013-06-09 21:42:00,64.0,62.0,29.78,NE,49,0.0,0.0,93,0.00,,,0.52,,2013-06-10 02:42:00,
2013-06-09 21:52:00,63.0,61.0,29.78,NE,49,0.0,1.0,93,0.00,,,0.52,,2013-06-10 02:52:00,
2013-06-09 22:02:00,63.0,61.0,29.79,NE,49,0.0,0.0,94,0.00,,,0.52,,2013-06-10 03:02:00,
2013-06-09 22:12:00,63.0,61.0,29.79,NE,49,0.0,0.0,94,0.00,,,0.52,,2013-06-10 03:12:00,
2013-06-09 22:22:00,63.0,61.0,29.80,NE,49,0.0,0.0,94,0.00,,,0.52,,2013-06-10 03:22:00,
2013-06-09 22:33:00,63.0,62.0,29.80,NE,49,0.0,0.0,95,0.00,,,0.52,,2013-06-10 03:33:00,
2013-06-09 22:43:00,63.0,62.0,29.80,NE,49,0.0,0.0,95,0.00,,,0.52,,2013-06-10 03:43:00,
2013-06-09 22:53:00,62.0,61.0,29.80,NE,49,0.0,0.0,95,0.00,,,0.52,,2013-06-10 03:53:00,
2013-06-09 23:03:00,62.0,61.0,29.80,NE,49,0.0,0.0,96,0.00,,,0.52,,2013-06-10 04:03:00,
2013-06-09 23:12:00,62.0,61.0,29.80,SE,130,0.0,0.0,96,0.00,,,0.52,,2013-06-10 04:12:00,
2013-06-09 23:23:00,62.0,61.0,29.80,SE,130,0.0,0.0,96,0.00,,,0.52,,2013-06-10 04:23:00,
2013-06-09 23:33:00,61.0,60.0,29.81,SE,130,0.0,0.0,97,0.00,,,0.52,,2013-06-10 04:33:00,
2013-06-09 23:42:00,61.0,60.0,29.81,SE,130,0.0,0.0,97,0.00,,,0.52,,2013-06-10 04:42:00,
2013-06-09 23:52:00,60.0,60.0,29.80,SE,130,0.0,0.0,99,0.00,,,0.52,,2013-06-10 04:52:00,